WGS F8 (USA 272)

Last updated on Sun Oct 19 2025 00:02:50 GMT+0000 (Coordinated Universal Time)

1 41879U 16075A 25291.20530907 -.00000209 00000+0 00000+0 0 9993 2 41879 0.0121 242.9875 0000271 359.9661 7.7341 1.00271137 32392
UTC large
Height (km)
Speed (km/s)
/
Latitude / Longitude
Inclination (degrees)
Orbital Period (minutes)
Azimuth
Elevation
Range (km)
Doppler Factor

Next 0 passes for location: London (51.5072 / 0.1276)

Sorry there are no passes over London.